sat.trackr.live / text

‹ back to catalog

STARLINK-30284

NORAD 57877 · 2023-144P

PAYLOAD ACTIVE UNKNOWN

§ Identity

Operator
Country
US
Launch date
2023-09-16
Launch site
AFETR
Launch vehicle
Mass (kg)
RCS (m²)

Purposes: comms

External: N2YO · Heavens-Above · Gunter

§ Orbital elements

Epoch: 2026-09-20T07:29:29.950944Z

Period
94.27 min
Inclination
43.0029°
Eccentricity
0.0001594
Mean motion
15.27578370 rev/d
Perigee alt
482.0 km
Apogee alt
484.1 km
Semi-major
6,861.2 km
B*
2.2654e-5
RAAN
229.4366°
Arg perigee
276.9475°
Mean anomaly
83.1196°
Rev number
16,782

§ Raw data

STARLINK-302841 57877U 23144P   26263.31215221  .00000361  00000+0  22654-4 0  99962 57877  43.0029 229.4366 0001594 276.9475  83.1196 15.27578370167822

JSON: /api/v1/satellites/57877 · /tle

For live sub-satellite position, see the globe view (requires WebGL).

§ Visibility from observer

Set your observer location to see the next 7 days of passes ≥ 10°. The values pass through the URL so the page stays shareable.

No JS? Fill the form by hand. The geolocation button needs JavaScript.